QPF
0.01 0.01 0.02 0.03 0.05 0.06 0.06 0.05 0.05 0.04 0.04 0.04 0.05 0.06 0.05 0.05 0.04 0.03 0.02 0.02 0.03 0.07 0.10 0.09 0.09 0.07 0.07 0.10 0.09 0.06 0.05 0.05 0.06 0.06 0.05 0.05 0.05 0.06 0.05 0.04 0.04 0.04 0.05
0.01 0.01 0.01 0.03 0.05 0.07 0.07 0.07 0.06 0.05 0.04 0.03 0.04 0.05 0.05 0.04 0.05 0.05 0.04 0.02 0.02 0.05 0.09 0.10 0.09 0.07 0.06 0.08 0.07 0.06 0.04 0.04 0.07 0.10 0.07 0.07 0.06 0.06 0.06 0.06 0.05 0.05 0.06
0.02 0.02 0.02 0.03 0.03 0.04 0.06 0.07 0.09 0.07 0.05 0.04 0.04 0.03 0.04 0.04 0.05 0.05 0.04 0.03 0.02 0.03 0.06 0.08 0.08 0.08 0.07 0.06 0.06 0.06 0.04 0.04 0.10 0.13 0.11 0.12 0.10 0.06 0.06 0.07 0.06 0.06 0.08
0.01 0.01 0.02 0.02 0.02 0.03 0.04 0.06 0.07 0.07 0.07 0.06 0.05 0.03 0.02 0.02 0.03 0.03 0.03 0.03 0.03 0.02 0.03 0.05 0.05 0.06 0.06 0.04 0.05 0.05 0.04 0.04 0.07 0.17 0.28 0.21 0.15 0.11 0.08 0.06 0.06 0.07 0.10
0.01 0.02 0.02 0.02 0.02 0.03 0.04 0.04 0.04 0.05 0.06 0.05 0.03 0.03 0.02 0.01 0.02 0.02 0.03 0.02 0.02 0.02 0.03 0.04 0.04 0.05 0.05 0.05 0.05 0.03 0.03 0.03 0.05 0.09 0.20 0.24 0.18 0.13 0.07 0.07 0.08 0.10 0.09
0.01 0.02 0.02 0.03 0.03 0.04 0.05 0.04 0.03 0.03 0.04 0.04 0.02 0.02 0.02 0.01 0.01 0.01 0.02 0.02 0.02 0.02 0.03 0.04 0.03 0.03 0.05 0.05 0.04 0.03 0.04 0.04 0.07 0.09 0.12 0.12 0.11 0.08 0.07 0.08 0.10 0.11 0.08
0.01 0.01 0.02 0.03 0.04 0.04 0.04 0.03 0.03 0.02 0.03 0.02 0.02 0.02 0.01 0.01 0.01 0.01 0.03 0.03 0.02 0.02 0.01 0.02 0.04 0.03 0.03 0.03 0.03 0.03 0.04 0.04 0.06 0.11 0.12 0.12 0.11 0.09 0.10 0.10 0.10 0.10 0.08
0.00 0.01 0.03 0.03 0.04 0.04 0.03 0.03 0.03 0.03 0.04 0.03 0.03 0.03 0.03 0.03 0.03 0.03 0.03 0.03 0.02 0.02 0.01 0.03 0.04 0.04 0.03 0.01 0.02 0.02 0.02 0.02 0.03 0.08 0.11 0.12 0.13 0.13 0.12 0.09 0.08 0.07 0.08
0.01 0.01 0.02 0.03 0.04 0.05 0.04 0.03 0.03 0.03 0.04 0.04 0.03 0.04 0.04 0.04 0.05 0.04 0.02 0.03 0.02 0.02 0.02 0.02 0.02 0.02 0.02 0.02 0.01 0.01 0.02 0.02 0.04 0.07 0.08 0.10 0.13 0.13 0.12 0.10 0.09 0.08 0.05
0.00 0.01 0.01 0.01 0.02 0.03 0.04 0.04 0.03 0.04 0.05 0.05 0.04 0.03 0.03 0.04 0.05 0.04 0.03 0.04 0.04 0.03 0.02 0.02 0.02 0.02 0.03 0.03 0.02 0.01 0.01 0.02 0.05 0.07 0.06 0.10 0.13 0.07 0.04 0.04 0.05 0.04 0.03
0.00 0.00 0.00 0.00 0.01 0.02 0.03 0.03 0.03 0.04 0.06 0.06 0.06 0.04 0.04 0.05 0.05 0.04 0.03 0.04 0.07 0.07 0.04 0.03 0.02 0.02 0.02 0.02 0.02 0.01 0.01 0.03 0.05 0.06 0.07 0.08 0.10 0.06 0.03 0.04 0.04 0.03 0.02
0.00 0.00 0.00 0.00 0.01 0.01 0.02 0.02 0.03 0.03 0.04 0.05 0.06 0.06 0.06 0.08 0.05 0.04 0.03 0.03 0.04 0.07 0.07 0.05 0.03 0.02 0.02 0.02 0.02 0.02 0.02 0.03 0.05 0.05 0.05 0.05 0.06 0.04 0.03 0.03 0.03 0.03 0.02
0.00 0.00 0.00 0.00 0.00 0.01 0.01 0.02 0.03 0.04 0.04 0.04 0.05 0.04 0.05 0.07 0.05 0.04 0.05 0.04 0.03 0.03 0.03 0.04 0.03 0.02 0.02 0.02 0.02 0.02 0.02 0.02 0.04 0.04 0.04 0.03 0.04 0.05 0.05 0.04 0.04 0.03 0.04
0.00 0.00 0.00 0.00 0.00 0.00 0.01 0.01 0.02 0.02 0.01 0.02 0.02 0.04 0.05 0.05 0.05 0.05 0.05 0.06 0.05 0.04 0.04 0.03 0.03 0.03 0.03 0.03 0.02 0.01 0.01 0.01 0.01 0.03 0.03 0.02 0.02 0.02 0.04 0.05 0.06 0.05 0.04
0.00 0.00 0.00 0.00 0.00 0.00 0.01 0.01 0.01 0.01 0.01 0.01 0.02 0.02 0.04 0.04 0.05 0.04 0.04 0.06 0.07 0.06 0.06 0.04 0.03 0.04 0.04 0.02 0.01 0.01 0.01 0.01 0.00 0.01 0.01 0.02 0.01 0.01 0.03 0.03 0.02 0.01 0.01
0.00 0.00 0.00 0.00 0.00 0.00 0.01 0.01 0.02 0.02 0.02 0.02 0.02 0.02 0.03 0.03 0.04 0.03 0.04 0.04 0.05 0.06 0.05 0.03 0.02 0.02 0.02 0.01 0.01 0.01 0.01 0.01 0.00 0.00 0.00 0.00 0.00 0.00 0.00 0.00 0.00 0.00 0.00
0.00 0.00 0.00 0.00 0.00 0.00 0.00 0.02 0.02 0.02 0.03 0.03 0.02 0.01 0.02 0.02 0.02 0.02 0.02 0.03 0.04 0.04 0.04 0.03 0.02 0.01 0.01 0.01 0.01 0.01 0.01 0.00 0.00 0.00 0.00 0.00 0.00 0.00 0.00 0.00 0.00 0.00 0.00
0.00 0.00 0.00 0.00 0.00 0.00 0.01 0.01 0.01 0.02 0.03 0.02 0.01 0.01 0.01 0.01 0.01 0.02 0.02 0.03 0.03 0.03 0.03 0.02 0.03 0.03 0.02 0.02 0.01 0.01 0.00 0.00 0.00 0.00 0.00 0.00 0.00 0.00 0.00 0.01 0.01 0.00 0.00
0.00 0.00 0.00 0.01 0.01 0.00 0.01 0.01 0.01 0.02 0.02 0.02 0.02 0.01 0.01 0.01 0.01 0.01 0.02 0.02 0.02 0.02 0.03 0.02 0.02 0.03 0.03 0.03 0.02 0.01 0.01 0.01 0.01 0.01 0.01 0.00 0.01 0.01 0.01 0.01 0.01 0.01 0.01
0.00 0.00 0.00 0.01 0.01 0.01 0.01 0.01 0.01 0.02 0.02 0.03 0.02 0.02 0.01 0.01 0.01 0.02 0.03 0.03 0.03 0.03 0.03 0.02 0.02 0.02 0.02 0.03 0.02 0.01 0.01 0.01 0.01 0.01 0.01 0.01 0.01 0.01 0.01 0.01 0.01 0.01 0.01
0.01 0.00 0.01 0.01 0.01 0.01 0.01 0.01 0.01 0.02 0.02 0.02 0.02 0.02 0.01 0.01 0.01 0.03 0.03 0.02 0.02 0.03 0.03 0.03 0.02 0.02 0.02 0.02 0.02 0.01 0.01 0.01 0.01 0.01 0.01 0.01 0.01 0.01 0.01 0.01 0.01 0.01 0.01
0.01 0.01 0.00 0.01 0.01 0.01 0.02 0.02 0.02 0.02 0.02 0.02 0.01 0.01 0.00 0.00 0.01 0.03 0.03 0.03 0.03 0.02 0.02 0.02 0.02 0.02 0.02 0.02 0.02 0.02 0.01 0.01 0.01 0.01 0.01 0.01 0.01 0.01 0.01 0.01 0.01 0.01 0.01
0.01 0.01 0.00 0.01 0.02 0.02 0.02 0.03 0.03 0.01 0.02 0.02 0.02 0.01 0.00 0.00 0.01 0.01 0.03 0.04 0.04 0.03 0.03 0.03 0.03 0.03 0.03 0.02 0.02 0.02 0.01 0.01 0.01 0.01 0.01 0.01 0.01 0.01 0.01 0.01 0.00 0.01 0.01
0.02 0.01 0.01 0.01 0.02 0.02 0.03 0.03 0.03 0.03 0.02 0.03 0.03 0.02 0.00 0.00 0.01 0.01 0.02 0.03 0.04 0.04 0.04 0.04 0.04 0.04 0.03 0.02 0.02 0.01 0.01 0.01 0.01 0.01 0.01 0.01 0.00 0.00 0.00 0.01 0.00 0.00 0.00
0.03 0.02 0.02 0.02 0.02 0.02 0.02 0.03 0.03 0.02 0.03 0.03 0.03 0.02 0.01 0.01 0.01 0.02 0.02 0.02 0.03 0.04 0.03 0.04 0.05 0.04 0.03 0.03 0.02 0.02 0.02 0.03 0.02 0.01 0.01 0.01 0.01 0.01 0.00 0.01 0.00 0.00 0.00
0.02 0.02 0.03 0.02 0.02 0.03 0.03 0.03 0.02 0.02 0.03 0.04 0.03 0.02 0.01 0.01 0.01 0.01 0.01 0.02 0.02 0.02 0.02 0.02 0.03 0.03 0.03 0.02 0.02 0.03 0.03 0.03 0.03 0.02 0.01 0.01 0.01 0.01 0.01 0.01 0.01 0.01 0.01
MSLP
1016.19 1016.38 1016.52 1016.62 1016.69 1016.74 1016.79 1016.86 1016.96 1017.08 1017.22 1017.38 1017.56 1017.75 1017.91 1018.01 1018.01 1017.83 1017.43 1016.77 1015.86 1014.74 1013.48 1012.20 1011.01 1010.06 1009.41 1009.13 1009.19 1009.55 1010.12 1010.79 1011.47 1012.07 1012.56 1012.93 1013.21 1013.43 1013.64 1013.84 1014.07 1014.29 1014.50
1016.54 1016.75 1016.91 1017.04 1017.14 1017.22 1017.31 1017.40 1017.51 1017.64 1017.79 1017.97 1018.18 1018.40 1018.60 1018.73 1018.74 1018.56 1018.13 1017.43 1016.45 1015.24 1013.89 1012.52 1011.26 1010.23 1009.54 1009.21 1009.24 1009.59 1010.17 1010.86 1011.58 1012.23 1012.79 1013.24 1013.59 1013.88 1014.13 1014.38 1014.62 1014.84 1015.05
1016.86 1017.06 1017.24 1017.39 1017.53 1017.66 1017.79 1017.91 1018.03 1018.17 1018.34 1018.53 1018.76 1019.00 1019.23 1019.40 1019.45 1019.31 1018.91 1018.23 1017.26 1016.07 1014.72 1013.34 1012.07 1011.02 1010.28 1009.91 1009.89 1010.19 1010.71 1011.37 1012.06 1012.72 1013.30 1013.78 1014.17 1014.49 1014.77 1015.03 1015.27 1015.49 1015.67
1017.12 1017.29 1017.47 1017.65 1017.84 1018.01 1018.18 1018.34 1018.49 1018.64 1018.80 1019.00 1019.23 1019.49 1019.76 1019.97 1020.09 1020.02 1019.71 1019.13 1018.27 1017.18 1015.92 1014.63 1013.41 1012.38 1011.64 1011.22 1011.13 1011.33 1011.76 1012.32 1012.93 1013.53 1014.07 1014.54 1014.93 1015.25 1015.54 1015.78 1016.01 1016.20 1016.35
1017.31 1017.44 1017.61 1017.81 1018.03 1018.26 1018.47 1018.66 1018.82 1018.98 1019.15 1019.33 1019.57 1019.84 1020.13 1020.41 1020.60 1020.65 1020.48 1020.06 1019.39 1018.48 1017.40 1016.26 1015.16 1014.21 1013.48 1013.03 1012.86 1012.94 1013.23 1013.65 1014.14 1014.63 1015.08 1015.49 1015.84 1016.14 1016.40 1016.62 1016.80 1016.96 1017.06
1017.43 1017.52 1017.67 1017.88 1018.12 1018.38 1018.63 1018.85 1019.04 1019.20 1019.35 1019.53 1019.76 1020.03 1020.36 1020.69 1020.98 1021.16 1021.16 1020.95 1020.50 1019.84 1019.00 1018.07 1017.14 1016.30 1015.62 1015.15 1014.90 1014.86 1014.99 1015.24 1015.56 1015.91 1016.26 1016.57 1016.86 1017.11 1017.33 1017.51 1017.65 1017.75 1017.80
1017.51 1017.54 1017.67 1017.87 1018.14 1018.42 1018.70 1018.94 1019.13 1019.29 1019.44 1019.60 1019.82 1020.10 1020.44 1020.83 1021.21 1021.52 1021.70 1021.71 1021.51 1021.11 1020.54 1019.86 1019.13 1018.44 1017.83 1017.36 1017.04 1016.88 1016.85 1016.93 1017.09 1017.29 1017.51 1017.73 1017.94 1018.13 1018.30 1018.43 1018.53 1018.57 1018.58
1017.57 1017.56 1017.65 1017.85 1018.11 1018.41 1018.70 1018.95 1019.15 1019.31 1019.44 1019.59 1019.80 1020.07 1020.43 1020.86 1021.31 1021.73 1022.08 1022.28 1022.32 1022.19 1021.88 1021.45 1020.94 1020.40 1019.89 1019.44 1019.08 1018.83 1018.67 1018.59 1018.60 1018.66 1018.76 1018.89 1019.03 1019.17 1019.29 1019.38 1019.43 1019.43 1019.38
1017.65 1017.60 1017.67 1017.85 1018.10 1018.39 1018.68 1018.93 1019.13 1019.28 1019.41 1019.55 1019.74 1020.01 1020.37 1020.81 1021.31 1021.81 1022.28 1022.64 1022.89 1022.97 1022.91 1022.71 1022.41 1022.03 1021.63 1021.23 1020.87 1020.55 1020.30 1020.11 1019.99 1019.94 1019.95 1020.01 1020.09 1020.19 1020.27 1020.33 1020.33 1020.29 1020.20
1017.79 1017.72 1017.76 1017.91 1018.15 1018.41 1018.68 1018.92 1019.11 1019.25 1019.37 1019.50 1019.68 1019.94 1020.29 1020.73 1021.24 1021.78 1022.32 1022.80 1023.18 1023.45 1023.58 1023.58 1023.47 1023.26 1022.98 1022.65 1022.32 1021.98 1021.68 1021.43 1021.24 1021.11 1021.06 1021.06 1021.11 1021.17 1021.23 1021.26 1021.24 1021.16 1021.03
1017.99 1017.91 1017.94 1018.06 1018.26 1018.50 1018.73 1018.94 1019.11 1019.25 1019.36 1019.48 1019.65 1019.89 1020.22 1020.63 1021.13 1021.67 1022.23 1022.76 1023.24 1023.63 1023.91 1024.08 1024.14 1024.08 1023.93 1023.71 1023.43 1023.13 1022.83 1022.55 1022.33 1022.17 1022.08 1022.06 1022.09 1022.13 1022.17 1022.17 1022.12 1022.01 1021.85
1018.24 1018.17 1018.19 1018.28 1018.44 1018.63 1018.83 1019.00 1019.15 1019.27 1019.37 1019.49 1019.64 1019.86 1020.16 1020.53 1020.99 1021.50 1022.04 1022.59 1023.11 1023.58 1023.97 1024.28 1024.48 1024.57 1024.56 1024.45 1024.27 1024.03 1023.77 1023.52 1023.31 1023.15 1023.05 1023.02 1023.03 1023.06 1023.08 1023.06 1022.98 1022.84 1022.64
1018.52 1018.47 1018.48 1018.54 1018.66 1018.80 1018.95 1019.08 1019.20 1019.30 1019.39 1019.50 1019.64 1019.84 1020.10 1020.43 1020.83 1021.29 1021.79 1022.32 1022.86 1023.37 1023.85 1024.26 1024.59 1024.82 1024.95 1024.98 1024.91 1024.77 1024.59 1024.39 1024.21 1024.07 1023.99 1023.95 1023.95 1023.97 1023.97 1023.92 1023.81 1023.63 1023.39
1018.78 1018.75 1018.75 1018.80 1018.87 1018.97 1019.07 1019.16 1019.25 1019.33 1019.41 1019.51 1019.64 1019.81 1020.04 1020.32 1020.66 1021.07 1021.52 1022.02 1022.55 1023.09 1023.62 1024.12 1024.57 1024.93 1025.20 1025.36 1025.43 1025.40 1025.31 1025.19 1025.06 1024.96 1024.89 1024.87 1024.86 1024.86 1024.83 1024.76 1024.61 1024.40 1024.11
1018.97 1018.96 1018.97 1018.99 1019.04 1019.10 1019.16 1019.22 1019.29 1019.35 1019.43 1019.52 1019.64 1019.79 1019.98 1020.22 1020.50 1020.85 1021.26 1021.72 1022.24 1022.79 1023.37 1023.95 1024.50 1024.98 1025.38 1025.67 1025.86 1025.95 1025.96 1025.92 1025.86 1025.81 1025.77 1025.76 1025.75 1025.73 1025.68 1025.57 1025.39 1025.14 1024.82
1019.04 1019.05 1019.07 1019.10 1019.13 1019.17 1019.21 1019.26 1019.31 1019.37 1019.44 1019.53 1019.64 1019.77 1019.94 1020.14 1020.38 1020.68 1021.05 1021.48 1021.98 1022.55 1023.16 1023.80 1024.42 1025.00 1025.51 1025.92 1026.22 1026.42 1026.53 1026.58 1026.59 1026.58 1026.58 1026.59 1026.58 1026.56 1026.49 1026.36 1026.16 1025.88 1025.53
1018.97 1019.01 1019.05 1019.08 1019.13 1019.17 1019.21 1019.26 1019.32 1019.38 1019.46 1019.56 1019.67 1019.79 1019.94 1020.11 1020.33 1020.59 1020.92 1021.33 1021.82 1022.39 1023.02 1023.69 1024.37 1025.01 1025.60 1026.09 1026.49 1026.78 1026.98 1027.11 1027.19 1027.24 1027.28 1027.32 1027.33 1027.32 1027.25 1027.11 1026.90 1026.60 1026.24
1018.79 1018.84 1018.91 1018.97 1019.04 1019.11 1019.18 1019.25 1019.33 1019.41 1019.51 1019.62 1019.73 1019.86 1020.00 1020.16 1020.36 1020.60 1020.91 1021.30 1021.77 1022.32 1022.95 1023.63 1024.33 1025.00 1025.63 1026.18 1026.63 1026.99 1027.26 1027.46 1027.61 1027.73 1027.83 1027.91 1027.97 1027.98 1027.93 1027.81 1027.60 1027.31 1026.95
1018.52 1018.60 1018.70 1018.80 1018.91 1019.01 1019.12 1019.23 1019.34 1019.45 1019.58 1019.70 1019.84 1019.98 1020.13 1020.29 1020.48 1020.71 1021.00 1021.37 1021.82 1022.35 1022.95 1023.61 1024.29 1024.95 1025.58 1026.15 1026.63 1027.04 1027.36 1027.63 1027.85 1028.04 1028.20 1028.35 1028.46 1028.52 1028.51 1028.42 1028.23 1027.97 1027.62
1018.24 1018.34 1018.47 1018.61 1018.75 1018.90 1019.05 1019.19 1019.34 1019.49 1019.64 1019.80 1019.96 1020.12 1020.29 1020.47 1020.67 1020.90 1021.18 1021.53 1021.95 1022.44 1023.00 1023.61 1024.24 1024.86 1025.46 1026.01 1026.50 1026.92 1027.29 1027.61 1027.90 1028.16 1028.40 1028.62 1028.80 1028.92 1028.97 1028.93 1028.79 1028.55 1028.24
1018.03 1018.14 1018.28 1018.45 1018.62 1018.80 1018.98 1019.15 1019.33 1019.51 1019.69 1019.88 1020.07 1020.26 1020.46 1020.66 1020.88 1021.13 1021.41 1021.74 1022.13 1022.58 1023.08 1023.61 1024.17 1024.73 1025.28 1025.79 1026.25 1026.68 1027.08 1027.45 1027.80 1028.14 1028.46 1028.76 1029.01 1029.20 1029.31 1029.32 1029.23 1029.03 1028.75
1017.94 1018.04 1018.19 1018.36 1018.54 1018.73 1018.91 1019.09 1019.28 1019.47 1019.67 1019.89 1020.11 1020.34 1020.57 1020.82 1021.07 1021.34 1021.64 1021.96 1022.32 1022.72 1023.16 1023.62 1024.10 1024.59 1025.06 1025.52 1025.96 1026.39 1026.80 1027.21 1027.61 1028.02 1028.41 1028.78 1029.10 1029.36 1029.53 1029.59 1029.55 1029.40 1029.15
1018.01 1018.10 1018.23 1018.38 1018.53 1018.69 1018.86 1019.02 1019.19 1019.38 1019.58 1019.81 1020.06 1020.33 1020.61 1020.90 1021.20 1021.51 1021.82 1022.15 1022.50 1022.86 1023.24 1023.64 1024.04 1024.45 1024.86 1025.27 1025.68 1026.10 1026.52 1026.95 1027.41 1027.86 1028.31 1028.74 1029.12 1029.43 1029.65 1029.76 1029.75 1029.64 1029.43
1018.25 1018.31 1018.40 1018.50 1018.61 1018.72 1018.82 1018.94 1019.07 1019.23 1019.42 1019.65 1019.92 1020.22 1020.55 1020.89 1021.24 1021.59 1021.95 1022.29 1022.64 1022.98 1023.32 1023.66 1024.01 1024.36 1024.72 1025.08 1025.47 1025.87 1026.30 1026.76 1027.24 1027.73 1028.22 1028.68 1029.09 1029.43 1029.68 1029.82 1029.84 1029.77 1029.60
1018.63 1018.65 1018.69 1018.73 1018.76 1018.79 1018.83 1018.87 1018.94 1019.05 1019.21 1019.43 1019.71 1020.04 1020.41 1020.80 1021.21 1021.61 1022.00 1022.38 1022.74 1023.07 1023.40 1023.71 1024.02 1024.33 1024.65 1024.99 1025.35 1025.75 1026.18 1026.65 1027.14 1027.64 1028.14 1028.61 1029.04 1029.39 1029.64 1029.80 1029.85 1029.81 1029.69
1019.11 1019.09 1019.07 1019.03 1018.99 1018.93 1018.87 1018.84 1018.83 1018.89 1019.01 1019.21 1019.49 1019.84 1020.24 1020.68 1021.13 1021.58 1022.02 1022.43 1022.80 1023.15 1023.47 1023.77 1024.06 1024.36 1024.66 1024.99 1025.34 1025.73 1026.16 1026.62 1027.11 1027.60 1028.09 1028.55 1028.96 1029.31 1029.56 1029.73 1029.81 1029.80 1029.72
Thickness
5729 5729 5727 5727 5726 5725 5725 5724 5724 5724 5724 5724 5724 5723 5722 5721 5720 5718 5717 5717 5717 5717 5718 5718 5718 5718 5718 5718 5718 5718 5718 5718 5719 5719 5720 5720 5721 5721 5722 5722 5722 5723 5723
5727 5726 5725 5724 5724 5723 5722 5721 5721 5720 5719 5719 5718 5718 5718 5717 5715 5714 5713 5712 5712 5712 5712 5713 5713 5713 5713 5713 5713 5712 5712 5713 5713 5713 5714 5714 5715 5715 5716 5716 5717 5717 5718
5724 5723 5721 5721 5720 5720 5719 5718 5717 5716 5716 5715 5714 5713 5713 5712 5711 5711 5710 5709 5708 5707 5707 5708 5708 5707 5707 5708 5707 5707 5707 5707 5707 5708 5708 5709 5709 5709 5710 5710 5711 5712 5712
5721 5720 5718 5717 5718 5717 5716 5714 5713 5711 5710 5710 5709 5709 5709 5708 5707 5707 5707 5706 5704 5703 5703 5703 5702 5702 5702 5702 5702 5702 5701 5701 5702 5702 5703 5704 5704 5704 5704 5705 5705 5706 5706
5718 5717 5716 5715 5715 5714 5713 5712 5709 5707 5705 5705 5705 5705 5705 5704 5704 5703 5702 5702 5701 5700 5699 5698 5697 5697 5697 5697 5697 5697 5696 5696 5696 5697 5697 5698 5699 5698 5698 5699 5699 5699 5700
5716 5715 5714 5713 5712 5710 5709 5708 5705 5705 5704 5703 5703 5701 5700 5700 5700 5699 5698 5698 5697 5697 5695 5694 5693 5692 5691 5691 5692 5692 5692 5692 5691 5692 5692 5692 5693 5693 5693 5693 5693 5693 5693
5714 5714 5713 5711 5710 5708 5706 5705 5703 5701 5700 5700 5697 5694 5695 5697 5696 5695 5695 5694 5693 5693 5692 5690 5689 5688 5686 5686 5686 5686 5686 5686 5686 5686 5686 5687 5687 5687 5687 5687 5686 5686 5686
5712 5712 5711 5709 5707 5705 5704 5703 5700 5697 5697 5698 5693 5688 5683 5684 5689 5692 5691 5690 5689 5689 5688 5687 5686 5685 5683 5681 5681 5681 5681 5681 5681 5681 5681 5681 5681 5681 5681 5681 5680 5680 5680
5710 5709 5709 5707 5706 5704 5701 5700 5699 5695 5692 5694 5695 5689 5681 5676 5679 5684 5686 5686 5685 5685 5684 5683 5683 5681 5680 5678 5677 5676 5676 5676 5676 5676 5676 5676 5677 5677 5677 5675 5674 5673 5673
5707 5707 5706 5705 5704 5702 5701 5699 5698 5696 5693 5690 5691 5692 5690 5685 5678 5674 5679 5682 5682 5682 5681 5681 5679 5678 5676 5675 5673 5672 5671 5671 5671 5671 5672 5673 5674 5674 5672 5670 5668 5667 5666
5705 5704 5704 5703 5701 5700 5699 5698 5697 5695 5693 5690 5688 5688 5687 5686 5684 5676 5671 5674 5676 5678 5678 5678 5676 5674 5673 5672 5670 5669 5667 5667 5667 5667 5667 5668 5669 5669 5666 5664 5662 5660 5660
5702 5702 5701 5700 5700 5699 5698 5696 5695 5694 5692 5691 5689 5687 5684 5682 5680 5678 5672 5670 5670 5672 5674 5674 5673 5672 5670 5668 5667 5665 5664 5663 5662 5662 5662 5662 5662 5661 5660 5658 5656 5655 5655
5698 5699 5699 5698 5697 5696 5696 5695 5693 5691 5691 5689 5687 5686 5685 5684 5684 5681 5675 5671 5669 5669 5670 5670 5670 5669 5667 5665 5663 5661 5660 5659 5658 5658 5657 5657 5656 5655 5654 5653 5651 5651 5650
5697 5697 5696 5695 5694 5694 5693 5692 5690 5689 5689 5688 5687 5685 5684 5684 5683 5681 5676 5671 5666 5665 5665 5665 5666 5666 5664 5662 5660 5659 5657 5655 5654 5653 5653 5652 5651 5650 5649 5647 5646 5645 5644
5697 5695 5694 5692 5691 5691 5690 5689 5687 5686 5686 5685 5684 5683 5681 5681 5681 5679 5678 5674 5667 5660 5658 5661 5662 5663 5662 5660 5658 5656 5654 5652 5651 5649 5648 5647 5646 5645 5643 5642 5641 5640 5639
5694 5692 5691 5690 5688 5687 5687 5685 5684 5683 5682 5681 5680 5679 5678 5677 5677 5676 5675 5673 5671 5665 5658 5659 5659 5660 5660 5658 5655 5653 5651 5649 5648 5646 5645 5643 5642 5640 5639 5637 5636 5634 5633
5692 5690 5689 5687 5685 5684 5683 5682 5680 5680 5678 5677 5677 5676 5674 5674 5672 5672 5671 5669 5667 5665 5658 5656 5657 5657 5655 5654 5652 5650 5648 5646 5644 5642 5641 5639 5638 5636 5634 5632 5631 5629 5628
5690 5688 5686 5684 5683 5681 5680 5679 5677 5676 5675 5673 5673 5671 5670 5670 5668 5667 5666 5665 5663 5662 5657 5652 5651 5651 5650 5650 5648 5646 5645 5643 5641 5639 5637 5635 5634 5631 5629 5628 5626 5624 5622
5686 5685 5683 5681 5679 5678 5677 5676 5674 5673 5671 5670 5669 5668 5666 5665 5663 5662 5661 5660 5659 5659 5655 5650 5647 5646 5645 5645 5643 5642 5641 5639 5637 5635 5633 5631 5629 5627 5625 5623 5621 5619 5617
5683 5681 5680 5678 5676 5674 5673 5671 5670 5669 5667 5666 5665 5664 5663 5661 5659 5658 5657 5655 5654 5652 5649 5646 5643 5641 5640 5639 5637 5635 5633 5633 5632 5631 5629 5626 5624 5622 5620 5618 5616 5614 5612
5679 5677 5675 5673 5672 5669 5668 5666 5665 5664 5662 5661 5660 5659 5658 5657 5655 5654 5653 5650 5648 5645 5643 5640 5637 5635 5634 5632 5630 5630 5628 5627 5627 5626 5623 5621 5618 5616 5614 5613 5611 5609 5607
5674 5672 5670 5668 5666 5665 5663 5662 5659 5658 5657 5655 5654 5653 5652 5650 5649 5648 5647 5646 5644 5640 5637 5634 5632 5629 5628 5627 5626 5625 5622 5619 5617 5620 5616 5614 5613 5611 5610 5608 5607 5605 5602
5669 5667 5665 5663 5660 5659 5658 5656 5654 5652 5651 5650 5649 5647 5646 5644 5642 5640 5640 5639 5638 5636 5634 5631 5627 5626 5624 5623 5620 5618 5617 5614 5612 5613 5610 5607 5608 5606 5606 5604 5602 5600 5598
5664 5662 5660 5658 5656 5654 5653 5651 5649 5647 5646 5645 5644 5642 5640 5638 5636 5634 5633 5631 5630 5628 5628 5626 5623 5622 5620 5618 5616 5614 5612 5610 5609 5608 5606 5601 5602 5601 5601 5599 5598 5596 5593
5659 5657 5655 5653 5650 5648 5647 5646 5644 5641 5640 5639 5638 5637 5635 5632 5631 5629 5627 5624 5622 5621 5620 5619 5618 5616 5615 5613 5611 5607 5605 5601 5599 5600 5600 5597 5596 5595 5595 5594 5593 5590 5588
5654 5652 5650 5648 5646 5643 5642 5640 5638 5635 5633 5632 5631 5631 5629 5627 5625 5623 5620 5617 5614 5613 5613 5612 5610 5609 5607 5606 5604 5602 5599 5595 5593 5592 5594 5591 5590 5588 5587 5589 5587 5585 5582